Time,TemperatureF,DewpointF,PressureIn,WindDirection,WindDirectionDegrees,WindSpeedMPH,WindSpeedGustMPH,Humidity,HourlyPrecipIn,Conditions,Clouds,dailyrainin,SoftwareType,DateUTC
2013-10-11 00:00:00,69.0,58.4,30.04,SE,135,0.0,0.0,69,0.00,,,0.00,Weather View 32 v70,2013-10-11 04:00:00,
2013-10-11 00:05:00,69.0,58.0,30.03,East,90,0.0,0.0,68,0.00,,,0.00,Weather View 32 v70,2013-10-11 04:05:00,
2013-10-11 00:10:00,70.0,59.3,30.03,North,360,0.0,0.0,69,0.00,,,0.00,Weather View 32 v70,2013-10-11 04:10:00,
2013-10-11 00:15:00,70.0,58.9,30.03,NW,315,0.0,0.0,68,0.00,,,0.00,Weather View 32 v70,2013-10-11 04:15:00,
2013-10-11 00:20:00,70.0,59.3,30.03,NW,315,0.0,0.0,69,0.00,,,0.00,Weather View 32 v70,2013-10-11 04:20:00,
2013-10-11 00:25:00,70.0,58.9,30.03,North,360,0.0,0.0,68,0.01,,,0.01,Weather View 32 v70,2013-10-11 04:25:00,
2013-10-11 00:30:00,69.0,58.4,30.03,North,360,0.0,0.0,69,0.01,,,0.01,Weather View 32 v70,2013-10-11 04:30:00,
2013-10-11 00:35:00,69.0,58.0,30.02,West,270,0.0,0.0,68,0.01,,,0.01,Weather View 32 v70,2013-10-11 04:35:00,
2013-10-11 00:40:00,69.0,58.4,30.02,West,270,0.0,0.0,69,0.01,,,0.01,Weather View 32 v70,2013-10-11 04:40:00,
2013-10-11 00:45:00,70.0,58.9,30.02,West,270,0.0,0.0,68,0.01,,,0.01,Weather View 32 v70,2013-10-11 04:45:00,
2013-10-11 00:50:00,70.0,59.3,30.02,West,270,0.0,0.0,69,0.01,,,0.01,Weather View 32 v70,2013-10-11 04:50:00,
2013-10-11 00:55:00,70.0,58.9,30.02,NW,315,0.0,0.0,68,0.01,,,0.01,Weather View 32 v70,2013-10-11 04:55:00,
2013-10-11 01:00:00,69.0,58.4,30.02,South,180,0.0,2.0,69,0.01,,,0.01,Weather View 32 v70,2013-10-11 05:00:00,
2013-10-11 01:05:00,70.0,59.3,30.02,South,180,0.0,2.0,69,0.01,,,0.01,Weather View 32 v70,2013-10-11 05:05:00,
2013-10-11 01:15:00,70.0,59.7,30.01,SE,135,0.0,2.0,70,0.01,,,0.01,Weather View 32 v70,2013-10-11 05:15:00,
2013-10-11 01:20:00,69.0,58.8,30.01,SE,135,0.0,2.0,70,0.01,,,0.01,Weather View 32 v70,2013-10-11 05:20:00,
2013-10-11 01:25:00,69.0,58.8,30.02,SE,135,0.0,2.0,70,0.00,,,0.01,Weather View 32 v70,2013-10-11 05:25:00,
2013-10-11 01:30:00,69.0,58.8,30.02,NW,315,0.0,2.0,70,0.00,,,0.01,Weather View 32 v70,2013-10-11 05:30:00,
2013-10-11 01:36:00,69.0,58.8,30.02,NW,315,0.0,2.0,70,0.00,,,0.01,Weather View 32 v70,2013-10-11 05:36:00,
2013-10-11 01:45:00,69.0,58.8,30.02,NW,315,0.0,2.0,70,0.00,,,0.01,Weather View 32 v70,2013-10-11 05:45:00,
2013-10-11 01:50:00,70.0,59.7,30.02,NW,315,0.0,2.0,70,0.00,,,0.01,Weather View 32 v70,2013-10-11 05:50:00,
2013-10-11 01:55:00,70.0,59.7,30.02,NW,315,0.0,2.0,70,0.00,,,0.01,Weather View 32 v70,2013-10-11 05:55:00,
2013-10-11 02:00:00,69.0,58.8,30.02,NW,315,0.0,0.0,70,0.00,,,0.01,Weather View 32 v70,2013-10-11 06:00:00,
2013-10-11 02:05:00,69.0,58.8,30.02,SE,135,0.0,0.0,70,0.01,,,0.02,Weather View 32 v70,2013-10-11 06:05:00,
2013-10-11 02:10:00,69.0,58.8,30.02,SE,135,0.0,0.0,70,0.01,,,0.02,Weather View 32 v70,2013-10-11 06:10:00,
2013-10-11 02:15:00,70.0,59.7,30.02,SE,135,0.0,0.0,70,0.01,,,0.02,Weather View 32 v70,2013-10-11 06:15:00,
2013-10-11 02:20:00,69.0,58.8,30.02,SE,135,0.0,0.0,70,0.01,,,0.02,Weather View 32 v70,2013-10-11 06:20:00,
2013-10-11 02:25:00,70.0,59.7,30.02,SE,135,0.0,0.0,70,0.01,,,0.02,Weather View 32 v70,2013-10-11 06:25:00,
2013-10-11 02:30:00,69.0,58.8,30.02,SE,135,0.0,0.0,70,0.01,,,0.02,Weather View 32 v70,2013-10-11 06:30:00,
2013-10-11 02:35:00,70.0,59.7,30.01,SE,135,0.0,0.0,70,0.01,,,0.02,Weather View 32 v70,2013-10-11 06:35:00,
2013-10-11 02:40:00,70.0,59.7,30.01,SE,135,0.0,0.0,70,0.01,,,0.02,Weather View 32 v70,2013-10-11 06:40:00,
2013-10-11 02:45:00,70.0,59.7,30.01,SE,135,0.0,0.0,70,0.01,,,0.02,Weather View 32 v70,2013-10-11 06:45:00,
2013-10-11 02:55:00,70.0,59.7,30.01,SE,135,0.0,0.0,70,0.01,,,0.02,Weather View 32 v70,2013-10-11 06:55:00,
2013-10-11 03:00:00,69.0,58.8,30.01,SE,135,0.0,0.0,70,0.01,,,0.02,Weather View 32 v70,2013-10-11 07:00:00,
2013-10-11 03:05:00,70.0,59.7,30.00,SE,135,0.0,0.0,70,0.00,,,0.02,Weather View 32 v70,2013-10-11 07:05:00,
2013-10-11 03:10:00,70.0,59.7,30.00,SE,135,0.0,0.0,70,0.00,,,0.02,Weather View 32 v70,2013-10-11 07:10:00,
2013-10-11 03:15:00,70.0,59.7,30.00,SE,135,0.0,0.0,70,0.00,,,0.02,Weather View 32 v70,2013-10-11 07:15:00,
2013-10-11 03:20:00,70.0,59.7,30.00,NW,315,0.0,0.0,70,0.00,,,0.02,Weather View 32 v70,2013-10-11 07:20:00,
2013-10-11 03:25:00,70.0,59.7,30.00,NNE,22,0.0,0.0,70,0.00,,,0.02,Weather View 32 v70,2013-10-11 07:25:00,
2013-10-11 03:30:00,69.0,58.8,30.00,SE,135,0.0,0.0,70,0.00,,,0.02,Weather View 32 v70,2013-10-11 07:30:00,
2013-10-11 03:35:00,70.0,59.7,30.01,West,270,0.0,0.0,70,0.00,,,0.02,Weather View 32 v70,2013-10-11 07:35:00,
2013-10-11 03:40:00,70.0,59.7,30.01,West,270,0.0,4.0,70,0.00,,,0.02,Weather View 32 v70,2013-10-11 07:40:00,
2013-10-11 03:45:00,70.0,59.7,30.01,SE,135,0.0,4.0,70,0.00,,,0.02,Weather View 32 v70,2013-10-11 07:45:00,
2013-10-11 03:55:00,70.0,59.7,30.01,ESE,112,0.0,4.0,70,0.00,,,0.02,Weather View 32 v70,2013-10-11 07:55:00,
2013-10-11 04:00:00,69.0,58.8,30.01,North,360,0.0,4.0,70,0.00,,,0.02,Weather View 32 v70,2013-10-11 08:00:00,
2013-10-11 04:05:00,69.0,58.8,30.01,NE,45,0.0,4.0,70,0.00,,,0.02,Weather View 32 v70,2013-10-11 08:05:00,
2013-10-11 04:10:00,69.0,58.8,30.01,NNE,22,0.0,4.0,70,0.00,,,0.02,Weather View 32 v70,2013-10-11 08:10:00,
2013-10-11 04:15:00,69.0,58.8,30.01,SE,135,0.0,4.0,70,0.00,,,0.02,Weather View 32 v70,2013-10-11 08:15:00,
2013-10-11 04:20:00,69.0,58.8,30.01,SW,225,0.0,4.0,70,0.00,,,0.02,Weather View 32 v70,2013-10-11 08:20:00,
2013-10-11 04:25:00,69.0,58.8,30.01,SW,225,0.0,4.0,70,0.00,,,0.02,Weather View 32 v70,2013-10-11 08:25:00,
2013-10-11 04:35:00,70.0,59.7,30.01,SW,225,0.0,4.0,70,0.00,,,0.02,Weather View 32 v70,2013-10-11 08:35:00,
2013-10-11 04:40:00,70.0,59.7,30.01,South,180,0.0,1.0,70,0.00,,,0.02,Weather View 32 v70,2013-10-11 08:40:00,
2013-10-11 04:45:00,70.0,59.7,30.01,West,270,0.0,3.0,70,0.00,,,0.02,Weather View 32 v70,2013-10-11 08:45:00,
2013-10-11 04:50:00,70.0,60.1,30.01,West,270,0.0,3.0,71,0.00,,,0.02,Weather View 32 v70,2013-10-11 08:50:00,
2013-10-11 04:55:00,70.0,59.7,30.02,West,270,0.0,3.0,70,0.00,,,0.02,Weather View 32 v70,2013-10-11 08:55:00,
2013-10-11 05:00:00,70.0,60.1,30.02,WSW,247,0.0,3.0,71,0.00,,,0.02,Weather View 32 v70,2013-10-11 09:00:00,
2013-10-11 05:05:00,70.0,59.7,30.02,South,180,0.0,3.0,70,0.00,,,0.02,Weather View 32 v70,2013-10-11 09:05:00,
2013-10-11 05:10:00,70.0,60.1,30.02,South,180,0.0,3.0,71,0.00,,,0.02,Weather View 32 v70,2013-10-11 09:10:00,
2013-10-11 05:15:00,70.0,59.7,30.02,South,180,0.0,3.0,70,0.00,,,0.02,Weather View 32 v70,2013-10-11 09:15:00,
2013-10-11 05:20:00,70.0,60.1,30.02,SSE,157,0.0,3.0,71,0.00,,,0.02,Weather View 32 v70,2013-10-11 09:20:00,
2013-10-11 05:25:00,70.0,59.7,30.02,SSE,157,0.0,3.0,70,0.00,,,0.02,Weather View 32 v70,2013-10-11 09:25:00,
2013-10-11 05:30:00,70.0,60.1,30.02,SSE,157,0.0,3.0,71,0.00,,,0.02,Weather View 32 v70,2013-10-11 09:30:00,
2013-10-11 05:35:00,70.0,59.7,30.02,West,270,0.0,3.0,70,0.00,,,0.02,Weather View 32 v70,2013-10-11 09:35:00,
2013-10-11 05:40:00,70.0,60.1,30.02,West,270,0.0,3.0,71,0.00,,,0.02,Weather View 32 v70,2013-10-11 09:40:00,
2013-10-11 05:50:00,70.0,60.1,30.02,West,270,0.0,0.0,71,0.00,,,0.02,Weather View 32 v70,2013-10-11 09:50:00,
2013-10-11 05:55:00,70.0,59.7,30.03,North,360,0.0,0.0,70,0.00,,,0.02,Weather View 32 v70,2013-10-11 09:55:00,
2013-10-11 06:00:00,70.0,60.1,30.03,SE,135,0.0,0.0,71,0.00,,,0.02,Weather View 32 v70,2013-10-11 10:00:00,
2013-10-11 06:05:00,70.0,59.7,30.03,SE,135,0.0,0.0,70,0.00,,,0.02,Weather View 32 v70,2013-10-11 10:05:00,
2013-10-11 06:10:00,70.0,60.1,30.03,SE,135,0.0,0.0,71,0.00,,,0.02,Weather View 32 v70,2013-10-11 10:10:00,
2013-10-11 06:15:00,70.0,59.7,30.03,SE,135,0.0,0.0,70,0.00,,,0.02,Weather View 32 v70,2013-10-11 10:15:00,
2013-10-11 06:20:00,70.0,60.1,30.03,SE,135,0.0,0.0,71,0.00,,,0.02,Weather View 32 v70,2013-10-11 10:20:00,
2013-10-11 06:30:00,69.0,59.2,30.04,SE,135,0.0,0.0,71,0.00,,,0.02,Weather View 32 v70,2013-10-11 10:30:00,
2013-10-11 06:35:00,69.0,58.8,30.04,SE,135,0.0,0.0,70,0.00,,,0.02,Weather View 32 v70,2013-10-11 10:35:00,
2013-10-11 06:40:00,69.0,59.2,30.04,SE,135,0.0,0.0,71,0.00,,,0.02,Weather View 32 v70,2013-10-11 10:40:00,
2013-10-11 06:45:00,69.0,58.8,30.04,SE,135,0.0,0.0,70,0.00,,,0.02,Weather View 32 v70,2013-10-11 10:45:00,
2013-10-11 06:50:00,69.0,59.2,30.04,SE,135,0.0,0.0,71,0.00,,,0.02,Weather View 32 v70,2013-10-11 10:50:00,
2013-10-11 07:00:00,69.0,59.2,30.04,SE,135,0.0,0.0,71,0.00,,,0.02,Weather View 32 v70,2013-10-11 11:00:00,
2013-10-11 07:05:00,69.0,58.8,30.04,SE,135,0.0,0.0,70,0.00,,,0.02,Weather View 32 v70,2013-10-11 11:05:00,
2013-10-11 07:10:00,69.0,59.2,30.04,SE,135,0.0,0.0,71,0.00,,,0.02,Weather View 32 v70,2013-10-11 11:10:00,
2013-10-11 07:15:00,69.0,58.8,30.04,SE,135,0.0,0.0,70,0.00,,,0.02,Weather View 32 v70,2013-10-11 11:15:00,
2013-10-11 07:20:00,69.0,59.2,30.04,SE,135,0.0,0.0,71,0.00,,,0.02,Weather View 32 v70,2013-10-11 11:20:00,
2013-10-11 07:25:00,68.0,57.8,30.04,SE,135,0.0,0.0,70,0.00,,,0.02,Weather View 32 v70,2013-10-11 11:25:00,
2013-10-11 07:30:00,69.0,59.2,30.04,SE,135,0.0,0.0,71,0.00,,,0.02,Weather View 32 v70,2013-10-11 11:30:00,
2013-10-11 07:35:00,69.0,58.8,30.04,SE,135,0.0,0.0,70,0.00,,,0.02,Weather View 32 v70,2013-10-11 11:35:00,
2013-10-11 07:40:00,69.0,59.2,30.04,SE,135,0.0,0.0,71,0.00,,,0.02,Weather View 32 v70,2013-10-11 11:40:00,
2013-10-11 07:45:00,69.0,58.8,30.04,SE,135,0.0,0.0,70,0.00,,,0.02,Weather View 32 v70,2013-10-11 11:45:00,
2013-10-11 07:50:00,69.0,59.2,30.04,SE,135,0.0,0.0,71,0.00,,,0.02,Weather View 32 v70,2013-10-11 11:50:00,
2013-10-11 08:00:00,69.0,59.2,30.05,SE,135,0.0,0.0,71,0.00,,,0.02,Weather View 32 v70,2013-10-11 12:00:00,
2013-10-11 08:05:00,69.0,58.8,30.05,SE,135,0.0,0.0,70,0.00,,,0.02,Weather View 32 v70,2013-10-11 12:05:00,
2013-10-11 08:10:00,69.0,59.2,30.05,SE,135,0.0,0.0,71,0.00,,,0.02,Weather View 32 v70,2013-10-11 12:10:00,
2013-10-11 08:15:00,69.0,58.8,30.05,SE,135,0.0,0.0,70,0.00,,,0.02,Weather View 32 v70,2013-10-11 12:15:00,
2013-10-11 08:20:00,69.0,59.2,30.05,East,90,0.0,0.0,71,0.00,,,0.02,Weather View 32 v70,2013-10-11 12:20:00,
2013-10-11 08:25:00,69.0,58.8,30.05,East,90,0.0,0.0,70,0.00,,,0.02,Weather View 32 v70,2013-10-11 12:25:00,
2013-10-11 08:30:00,69.0,59.2,30.05,East,90,0.0,0.0,71,0.00,,,0.02,Weather View 32 v70,2013-10-11 12:30:00,
2013-10-11 08:35:00,69.0,58.8,30.05,SE,135,0.0,0.0,70,0.00,,,0.02,Weather View 32 v70,2013-10-11 12:35:00,
2013-10-11 08:40:00,69.0,59.2,30.05,SE,135,0.0,0.0,71,0.00,,,0.02,Weather View 32 v70,2013-10-11 12:40:00,
2013-10-11 08:45:00,70.0,59.7,30.05,SE,135,0.0,0.0,70,0.00,,,0.02,Weather View 32 v70,2013-10-11 12:45:00,
2013-10-11 08:50:00,70.0,60.1,30.05,SE,135,0.0,0.0,71,0.00,,,0.02,Weather View 32 v70,2013-10-11 12:50:00,
2013-10-11 08:55:00,70.0,59.7,30.05,SE,135,0.0,0.0,70,0.00,,,0.02,Weather View 32 v70,2013-10-11 12:55:00,
2013-10-11 09:00:00,70.0,60.1,30.05,SE,135,0.0,0.0,71,0.00,,,0.02,Weather View 32 v70,2013-10-11 13:00:00,
2013-10-11 09:10:00,70.0,60.1,30.05,SE,135,0.0,0.0,71,0.00,,,0.02,Weather View 32 v70,2013-10-11 13:10:00,
2013-10-11 09:15:00,70.0,59.7,30.05,SE,135,0.0,0.0,70,0.00,,,0.02,Weather View 32 v70,2013-10-11 13:15:00,
2013-10-11 09:20:00,70.0,60.1,30.05,South,180,0.0,0.0,71,0.00,,,0.02,Weather View 32 v70,2013-10-11 13:20:00,
2013-10-11 09:25:00,70.0,59.7,30.05,SE,135,0.0,0.0,70,0.00,,,0.02,Weather View 32 v70,2013-10-11 13:25:00,
2013-10-11 09:30:00,70.0,60.1,30.05,SE,135,0.0,0.0,71,0.00,,,0.02,Weather View 32 v70,2013-10-11 13:30:00,
2013-10-11 09:35:00,70.0,59.7,30.05,SW,225,0.0,3.0,70,0.00,,,0.02,Weather View 32 v70,2013-10-11 13:35:00,
2013-10-11 09:40:00,70.0,60.1,30.05,South,180,0.0,3.0,71,0.00,,,0.02,Weather View 32 v70,2013-10-11 13:40:00,
2013-10-11 09:50:00,70.0,59.7,30.05,West,270,0.0,3.0,70,0.00,,,0.02,Weather View 32 v70,2013-10-11 13:50:00,
2013-10-11 09:55:00,70.0,59.7,30.06,SE,135,0.0,3.0,70,0.00,,,0.02,Weather View 32 v70,2013-10-11 13:55:00,
2013-10-11 10:00:00,70.0,59.7,30.06,SE,135,0.0,3.0,70,0.00,,,0.02,Weather View 32 v70,2013-10-11 14:00:00,
2013-10-11 10:05:00,70.0,59.3,30.05,NW,315,0.0,3.0,69,0.00,,,0.02,Weather View 32 v70,2013-10-11 14:05:00,
2013-10-11 10:15:00,71.0,60.3,30.06,East,90,0.0,3.0,69,0.00,,,0.02,Weather View 32 v70,2013-10-11 14:15:00,
2013-10-11 10:20:00,71.0,60.7,30.06,NW,315,0.0,3.0,70,0.00,,,0.02,Weather View 32 v70,2013-10-11 14:20:00,
2013-10-11 10:25:00,71.0,60.7,30.05,East,90,0.0,3.0,70,0.00,,,0.02,Weather View 32 v70,2013-10-11 14:25:00,
2013-10-11 10:30:00,71.0,60.7,30.05,East,90,0.0,3.0,70,0.00,,,0.02,Weather View 32 v70,2013-10-11 14:30:00,
2013-10-11 10:35:00,71.0,60.7,30.05,East,90,0.0,0.0,70,0.00,,,0.02,Weather View 32 v70,2013-10-11 14:35:00,
2013-10-11 10:40:00,71.0,60.7,30.05,East,90,0.0,0.0,70,0.00,,,0.02,Weather View 32 v70,2013-10-11 14:40:00,
2013-10-11 10:45:00,71.0,61.1,30.06,West,270,0.0,0.0,71,0.00,,,0.02,Weather View 32 v70,2013-10-11 14:45:00,
2013-10-11 10:50:00,71.0,61.1,30.06,NW,315,0.0,0.0,71,0.00,,,0.02,Weather View 32 v70,2013-10-11 14:50:00,
2013-10-11 10:55:00,72.0,62.0,30.05,NW,315,0.0,0.0,71,0.00,,,0.02,Weather View 32 v70,2013-10-11 14:55:00,
2013-10-11 11:05:00,72.0,62.4,30.06,South,180,0.0,0.0,72,0.00,,,0.02,Weather View 32 v70,2013-10-11 15:05:00,
2013-10-11 11:10:00,72.0,62.4,30.06,SE,135,0.0,0.0,72,0.00,,,0.02,Weather View 32 v70,2013-10-11 15:10:00,
2013-10-11 11:15:00,72.0,62.8,30.06,South,180,0.0,0.0,73,0.00,,,0.02,Weather View 32 v70,2013-10-11 15:15:00,
2013-10-11 11:20:00,73.0,63.8,30.06,South,180,0.0,0.0,73,0.00,,,0.02,Weather View 32 v70,2013-10-11 15:20:00,
2013-10-11 11:25:00,73.0,63.8,30.06,South,180,0.0,0.0,73,0.00,,,0.02,Weather View 32 v70,2013-10-11 15:25:00,
2013-10-11 11:30:00,73.0,63.8,30.06,South,180,0.0,0.0,73,0.00,,,0.02,Weather View 32 v70,2013-10-11 15:30:00,
2013-10-11 11:35:00,73.0,63.8,30.06,North,360,0.0,0.0,73,0.00,,,0.02,Weather View 32 v70,2013-10-11 15:35:00,
2013-10-11 11:40:00,73.0,63.8,30.06,North,360,0.0,0.0,73,0.00,,,0.02,Weather View 32 v70,2013-10-11 15:40:00,
2013-10-11 11:50:00,73.0,64.6,30.06,SE,135,0.0,0.0,75,0.00,,,0.02,Weather View 32 v70,2013-10-11 15:50:00,
2013-10-11 11:55:00,73.0,64.6,30.06,SE,135,0.0,0.0,75,0.00,,,0.02,Weather View 32 v70,2013-10-11 15:55:00,
2013-10-11 12:00:00,73.0,65.3,30.06,SE,135,0.0,0.0,77,0.00,,,0.02,Weather View 32 v70,2013-10-11 16:00:00,
2013-10-11 12:05:00,73.0,65.0,30.06,SE,135,0.0,0.0,76,0.00,,,0.02,Weather View 32 v70,2013-10-11 16:05:00,
2013-10-11 12:10:00,73.0,65.3,30.06,SE,135,0.0,0.0,77,0.00,,,0.02,Weather View 32 v70,2013-10-11 16:10:00,
2013-10-11 12:15:00,73.0,65.3,30.05,South,180,0.0,0.0,77,0.00,,,0.02,Weather View 32 v70,2013-10-11 16:15:00,
2013-10-11 12:20:00,74.0,66.7,30.05,South,180,0.0,0.0,78,0.00,,,0.02,Weather View 32 v70,2013-10-11 16:20:00,
2013-10-11 12:30:00,74.0,66.7,30.05,WNW,292,0.0,0.0,78,0.00,,,0.02,Weather View 32 v70,2013-10-11 16:30:00,
2013-10-11 12:35:00,74.0,66.7,30.05,South,180,0.0,0.0,78,0.00,,,0.02,Weather View 32 v70,2013-10-11 16:35:00,
2013-10-11 12:40:00,74.0,66.7,30.05,South,180,0.0,0.0,78,0.00,,,0.02,Weather View 32 v70,2013-10-11 16:40:00,
2013-10-11 12:45:00,74.0,66.7,30.05,East,90,0.0,0.0,78,0.00,,,0.02,Weather View 32 v70,2013-10-11 16:45:00,
2013-10-11 12:50:00,74.0,66.7,30.05,South,180,0.0,3.0,78,0.00,,,0.02,Weather View 32 v70,2013-10-11 16:50:00,
2013-10-11 12:55:00,75.0,67.6,30.04,NE,45,0.0,3.0,78,0.00,,,0.02,Weather View 32 v70,2013-10-11 16:55:00,
2013-10-11 13:00:00,74.0,66.7,30.04,SE,135,0.0,3.0,78,0.00,,,0.02,Weather View 32 v70,2013-10-11 17:00:00,
2013-10-11 13:05:00,75.0,67.6,30.04,SE,135,0.0,3.0,78,0.00,,,0.02,Weather View 32 v70,2013-10-11 17:05:00,
2013-10-11 13:10:00,75.0,67.6,30.04,SE,135,0.0,3.0,78,0.00,,,0.02,Weather View 32 v70,2013-10-11 17:10:00,
2013-10-11 13:15:00,75.0,67.6,30.04,SE,135,0.0,3.0,78,0.00,,,0.02,Weather View 32 v70,2013-10-11 17:15:00,
2013-10-11 13:20:00,75.0,68.0,30.04,SE,135,0.0,3.0,79,0.00,,,0.02,Weather View 32 v70,2013-10-11 17:20:00,
2013-10-11 13:30:00,75.0,68.0,30.03,SE,135,0.0,3.0,79,0.00,,,0.02,Weather View 32 v70,2013-10-11 17:30:00,
2013-10-11 13:35:00,75.0,68.0,30.03,South,180,0.0,3.0,79,0.00,,,0.02,Weather View 32 v70,2013-10-11 17:35:00,
2013-10-11 13:40:00,75.0,68.0,30.03,NW,315,0.0,3.0,79,0.00,,,0.02,Weather View 32 v70,2013-10-11 17:40:00,
2013-10-11 13:45:00,75.0,68.0,30.02,SE,135,0.0,3.0,79,0.00,,,0.02,Weather View 32 v70,2013-10-11 17:45:00,
2013-10-11 13:55:00,75.0,68.0,30.02,NE,45,0.0,3.0,79,0.00,,,0.02,Weather View 32 v70,2013-10-11 17:55:00,
2013-10-11 14:05:00,76.0,69.7,30.02,North,360,0.0,0.0,81,0.00,,,0.02,Weather View 32 v70,2013-10-11 18:05:00,
2013-10-11 14:10:00,76.0,69.7,30.02,North,360,0.0,0.0,81,0.00,,,0.02,Weather View 32 v70,2013-10-11 18:10:00,
2013-10-11 14:15:00,76.0,69.4,30.02,North,360,0.0,0.0,80,0.00,,,0.02,Weather View 32 v70,2013-10-11 18:15:00,
2013-10-11 14:20:00,76.0,69.7,30.02,West,270,0.0,0.0,81,0.00,,,0.02,Weather View 32 v70,2013-10-11 18:20:00,
2013-10-11 14:25:00,76.0,69.7,30.02,NW,315,0.0,0.0,81,0.00,,,0.02,Weather View 32 v70,2013-10-11 18:25:00,
2013-10-11 14:30:00,76.0,69.7,30.02,NW,315,0.0,0.0,81,0.00,,,0.02,Weather View 32 v70,2013-10-11 18:30:00,
2013-10-11 14:35:00,76.0,69.7,30.01,NW,315,0.0,0.0,81,0.00,,,0.02,Weather View 32 v70,2013-10-11 18:35:00,
2013-10-11 14:43:00,76.0,69.7,30.01,NNE,22,0.0,0.0,81,0.00,,,0.02,Weather View 32 v70,2013-10-11 18:43:00,
2013-10-11 14:50:00,76.0,69.7,30.00,South,180,0.0,0.0,81,0.00,,,0.02,Weather View 32 v70,2013-10-11 18:50:00,
2013-10-11 14:55:00,76.0,69.7,30.01,SE,135,0.0,0.0,81,0.00,,,0.02,Weather View 32 v70,2013-10-11 18:55:00,
2013-10-11 15:00:00,75.0,68.4,30.01,North,360,0.0,0.0,80,0.00,,,0.02,Weather View 32 v70,2013-10-11 19:00:00,
2013-10-11 15:05:00,76.0,69.7,30.01,NE,45,0.0,0.0,81,0.00,,,0.02,Weather View 32 v70,2013-10-11 19:05:00,
2013-10-11 15:10:00,76.0,69.7,30.01,NE,45,0.0,0.0,81,0.00,,,0.02,Weather View 32 v70,2013-10-11 19:10:00,
2013-10-11 15:15:00,76.0,69.7,30.01,SE,135,0.0,0.0,81,0.00,,,0.02,Weather View 32 v70,2013-10-11 19:15:00,
2013-10-11 15:20:00,76.0,69.7,30.01,SE,135,0.0,0.0,81,0.00,,,0.02,Weather View 32 v70,2013-10-11 19:20:00,
2013-10-11 15:25:00,76.0,69.7,30.01,SE,135,0.0,0.0,81,0.00,,,0.02,Weather View 32 v70,2013-10-11 19:25:00,
2013-10-11 15:30:00,76.0,69.7,30.01,SE,135,0.0,0.0,81,0.00,,,0.02,Weather View 32 v70,2013-10-11 19:30:00,
2013-10-11 15:35:00,77.0,70.7,30.00,SE,135,0.0,0.0,81,0.00,,,0.02,Weather View 32 v70,2013-10-11 19:35:00,
2013-10-11 15:44:00,77.0,70.7,30.00,SE,135,0.0,0.0,81,0.00,,,0.02,Weather View 32 v70,2013-10-11 19:44:00,
2013-10-11 15:50:00,77.0,70.7,30.00,West,270,0.0,0.0,81,0.00,,,0.02,Weather View 32 v70,2013-10-11 19:50:00,
2013-10-11 15:55:00,77.0,70.7,30.00,West,270,0.0,0.0,81,0.00,,,0.02,Weather View 32 v70,2013-10-11 19:55:00,
2013-10-11 16:00:00,77.0,70.7,30.00,West,270,0.0,0.0,81,0.00,,,0.02,Weather View 32 v70,2013-10-11 20:00:00,
2013-10-11 16:05:00,77.0,70.7,30.01,West,270,0.0,0.0,81,0.00,,,0.02,Weather View 32 v70,2013-10-11 20:05:00,
2013-10-11 16:10:00,77.0,70.7,30.01,SE,135,0.0,0.0,81,0.00,,,0.02,Weather View 32 v70,2013-10-11 20:10:00,
2013-10-11 16:15:00,77.0,70.7,30.01,SE,135,0.0,0.0,81,0.00,,,0.02,Weather View 32 v70,2013-10-11 20:15:00,
2013-10-11 16:25:00,77.0,70.7,30.00,SE,135,0.0,0.0,81,0.00,,,0.02,Weather View 32 v70,2013-10-11 20:25:00,
2013-10-11 16:30:00,77.0,70.7,30.00,SE,135,0.0,0.0,81,0.00,,,0.02,Weather View 32 v70,2013-10-11 20:30:00,
2013-10-11 16:35:00,77.0,70.7,30.00,SE,135,0.0,0.0,81,0.00,,,0.02,Weather View 32 v70,2013-10-11 20:35:00,
2013-10-11 16:40:00,77.0,70.7,30.00,SE,135,0.0,0.0,81,0.00,,,0.02,Weather View 32 v70,2013-10-11 20:40:00,
2013-10-11 16:45:00,77.0,70.7,30.01,SE,135,0.0,0.0,81,0.00,,,0.02,Weather View 32 v70,2013-10-11 20:45:00,
2013-10-11 16:50:00,77.0,70.7,30.01,SE,135,0.0,0.0,81,0.00,,,0.02,Weather View 32 v70,2013-10-11 20:50:00,
2013-10-11 16:55:00,77.0,70.7,30.01,SE,135,0.0,0.0,81,0.00,,,0.02,Weather View 32 v70,2013-10-11 20:55:00,
2013-10-11 17:05:00,77.0,70.7,30.01,SE,135,0.0,0.0,81,0.00,,,0.02,Weather View 32 v70,2013-10-11 21:05:00,
2013-10-11 17:10:00,77.0,70.7,30.01,SE,135,0.0,0.0,81,0.00,,,0.02,Weather View 32 v70,2013-10-11 21:10:00,
2013-10-11 17:15:00,77.0,70.7,30.01,SE,135,0.0,0.0,81,0.00,,,0.02,Weather View 32 v70,2013-10-11 21:15:00,
2013-10-11 17:20:00,77.0,70.7,30.01,SE,135,0.0,0.0,81,0.00,,,0.02,Weather View 32 v70,2013-10-11 21:20:00,
2013-10-11 17:25:00,77.0,70.7,30.01,SE,135,0.0,0.0,81,0.00,,,0.02,Weather View 32 v70,2013-10-11 21:25:00,
2013-10-11 17:30:00,77.0,70.7,30.01,SE,135,0.0,0.0,81,0.00,,,0.02,Weather View 32 v70,2013-10-11 21:30:00,
2013-10-11 17:35:00,77.0,70.7,30.01,SE,135,0.0,0.0,81,0.00,,,0.02,Weather View 32 v70,2013-10-11 21:35:00,
2013-10-11 17:40:00,77.0,70.3,30.01,SE,135,0.0,0.0,80,0.00,,,0.02,Weather View 32 v70,2013-10-11 21:40:00,
2013-10-11 17:45:00,77.0,70.3,30.01,SE,135,0.0,0.0,80,0.00,,,0.02,Weather View 32 v70,2013-10-11 21:45:00,
2013-10-11 17:55:00,77.0,70.3,30.01,SE,135,0.0,0.0,80,0.00,,,0.02,Weather View 32 v70,2013-10-11 21:55:00,
2013-10-11 18:00:00,77.0,70.3,30.01,SE,135,0.0,0.0,80,0.00,,,0.02,Weather View 32 v70,2013-10-11 22:00:00,
2013-10-11 18:10:00,77.0,70.3,30.01,SE,135,0.0,0.0,80,0.00,,,0.02,Weather View 32 v70,2013-10-11 22:10:00,
2013-10-11 18:15:00,77.0,70.3,30.02,SE,135,0.0,0.0,80,0.00,,,0.02,Weather View 32 v70,2013-10-11 22:15:00,
2013-10-11 18:20:00,76.0,69.4,30.02,SE,135,0.0,0.0,80,0.00,,,0.02,Weather View 32 v70,2013-10-11 22:20:00,
2013-10-11 18:25:00,76.0,69.4,30.01,SE,135,0.0,0.0,80,0.00,,,0.02,Weather View 32 v70,2013-10-11 22:25:00,
2013-10-11 18:30:00,76.0,69.4,30.01,SE,135,0.0,0.0,80,0.00,,,0.02,Weather View 32 v70,2013-10-11 22:30:00,
2013-10-11 18:35:00,76.0,69.0,30.02,SE,135,0.0,0.0,79,0.00,,,0.02,Weather View 32 v70,2013-10-11 22:35:00,
2013-10-11 18:45:00,76.0,69.0,30.02,SE,135,0.0,0.0,79,0.00,,,0.02,Weather View 32 v70,2013-10-11 22:45:00,
2013-10-11 18:50:00,76.0,69.0,30.02,SE,135,0.0,0.0,79,0.00,,,0.02,Weather View 32 v70,2013-10-11 22:50:00,
2013-10-11 18:55:00,76.0,69.0,30.02,SE,135,0.0,0.0,79,0.00,,,0.02,Weather View 32 v70,2013-10-11 22:55:00,
2013-10-11 19:00:00,75.0,67.6,30.02,SE,135,0.0,0.0,78,0.00,,,0.02,Weather View 32 v70,2013-10-11 23:00:00,
2013-10-11 19:05:00,75.0,67.6,30.02,SE,135,0.0,0.0,78,0.00,,,0.02,Weather View 32 v70,2013-10-11 23:05:00,
2013-10-11 19:10:00,75.0,67.6,30.02,SE,135,0.0,0.0,78,0.00,,,0.02,Weather View 32 v70,2013-10-11 23:10:00,
2013-10-11 19:15:00,75.0,67.6,30.03,SE,135,0.0,0.0,78,0.00,,,0.02,Weather View 32 v70,2013-10-11 23:15:00,
2013-10-11 19:20:00,75.0,67.6,30.03,SE,135,0.0,0.0,78,0.00,,,0.02,Weather View 32 v70,2013-10-11 23:20:00,
2013-10-11 19:25:00,75.0,67.6,30.03,SE,135,0.0,0.0,78,0.00,,,0.02,Weather View 32 v70,2013-10-11 23:25:00,
2013-10-11 19:30:00,75.0,67.6,30.03,SE,135,0.0,0.0,78,0.00,,,0.02,Weather View 32 v70,2013-10-11 23:30:00,
2013-10-11 19:35:00,75.0,67.6,30.03,SE,135,0.0,0.0,78,0.00,,,0.02,Weather View 32 v70,2013-10-11 23:35:00,
2013-10-11 19:45:00,75.0,67.3,30.04,SE,135,0.0,0.0,77,0.00,,,0.02,Weather View 32 v70,2013-10-11 23:45:00,
2013-10-11 19:50:00,74.0,66.3,30.04,SE,135,0.0,0.0,77,0.00,,,0.02,Weather View 32 v70,2013-10-11 23:50:00,
2013-10-11 19:55:00,74.0,66.3,30.04,SE,135,0.0,0.0,77,0.00,,,0.02,Weather View 32 v70,2013-10-11 23:55:00,
2013-10-11 20:00:00,74.0,66.3,30.04,SE,135,0.0,0.0,77,0.00,,,0.02,Weather View 32 v70,2013-10-12 00:00:00,
2013-10-11 20:05:00,74.0,65.9,30.04,SE,135,0.0,0.0,76,0.00,,,0.02,Weather View 32 v70,2013-10-12 00:05:00,
2013-10-11 20:10:00,74.0,66.3,30.04,SE,135,0.0,0.0,77,0.00,,,0.02,Weather View 32 v70,2013-10-12 00:10:00,
2013-10-11 20:20:00,74.0,65.9,30.05,SE,135,0.0,0.0,76,0.00,,,0.02,Weather View 32 v70,2013-10-12 00:20:00,
2013-10-11 20:25:00,74.0,65.9,30.05,SE,135,0.0,0.0,76,0.00,,,0.02,Weather View 32 v70,2013-10-12 00:25:00,
2013-10-11 20:30:00,74.0,65.9,30.05,SE,135,0.0,0.0,76,0.00,,,0.02,Weather View 32 v70,2013-10-12 00:30:00,
2013-10-11 20:35:00,74.0,65.9,30.05,SE,135,0.0,0.0,76,0.00,,,0.02,Weather View 32 v70,2013-10-12 00:35:00,
2013-10-11 20:40:00,74.0,65.9,30.05,SE,135,0.0,0.0,76,0.00,,,0.02,Weather View 32 v70,2013-10-12 00:40:00,
2013-10-11 20:45:00,74.0,65.9,30.05,SE,135,0.0,0.0,76,0.00,,,0.02,Weather View 32 v70,2013-10-12 00:45:00,
2013-10-11 20:50:00,74.0,65.9,30.05,SE,135,0.0,0.0,76,0.00,,,0.02,Weather View 32 v70,2013-10-12 00:50:00,
2013-10-11 20:55:00,74.0,65.5,30.05,SE,135,0.0,0.0,75,0.00,,,0.02,Weather View 32 v70,2013-10-12 00:55:00,
2013-10-11 21:05:00,74.0,65.5,30.05,SE,135,0.0,0.0,75,0.00,,,0.02,Weather View 32 v70,2013-10-12 01:05:00,
2013-10-11 21:10:00,74.0,65.5,30.05,SE,135,0.0,0.0,75,0.00,,,0.02,Weather View 32 v70,2013-10-12 01:10:00,
2013-10-11 21:15:00,74.0,65.5,30.06,SE,135,0.0,0.0,75,0.00,,,0.02,Weather View 32 v70,2013-10-12 01:15:00,
2013-10-11 21:20:00,74.0,65.5,30.06,SE,135,0.0,0.0,75,0.00,,,0.02,Weather View 32 v70,2013-10-12 01:20:00,
2013-10-11 21:25:00,74.0,65.2,30.06,SE,135,0.0,0.0,74,0.00,,,0.02,Weather View 32 v70,2013-10-12 01:25:00,
2013-10-11 21:30:00,73.0,64.6,30.06,SE,135,0.0,0.0,75,0.00,,,0.02,Weather View 32 v70,2013-10-12 01:30:00,
2013-10-11 21:40:00,73.0,64.2,30.06,SE,135,0.0,0.0,74,0.00,,,0.02,Weather View 32 v70,2013-10-12 01:40:00,
2013-10-11 21:45:00,73.0,63.8,30.07,SE,135,0.0,0.0,73,0.00,,,0.02,Weather View 32 v70,2013-10-12 01:45:00,
2013-10-11 21:50:00,73.0,64.2,30.07,SE,135,0.0,0.0,74,0.00,,,0.02,Weather View 32 v70,2013-10-12 01:50:00,
2013-10-11 21:55:00,73.0,63.8,30.07,SE,135,0.0,0.0,73,0.00,,,0.02,Weather View 32 v70,2013-10-12 01:55:00,
2013-10-11 22:00:00,73.0,63.8,30.07,SE,135,0.0,0.0,73,0.00,,,0.02,Weather View 32 v70,2013-10-12 02:00:00,
2013-10-11 22:10:00,73.0,63.8,30.07,SE,135,0.0,0.0,73,0.00,,,0.02,Weather View 32 v70,2013-10-12 02:10:00,
2013-10-11 22:15:00,73.0,63.0,30.07,SE,135,0.0,0.0,71,0.00,,,0.02,Weather View 32 v70,2013-10-12 02:15:00,
2013-10-11 22:20:00,73.0,63.0,30.07,SE,135,0.0,0.0,71,0.00,,,0.02,Weather View 32 v70,2013-10-12 02:20:00,
2013-10-11 22:25:00,73.0,63.0,30.07,SE,135,0.0,0.0,71,0.00,,,0.02,Weather View 32 v70,2013-10-12 02:25:00,
2013-10-11 22:30:00,72.0,62.0,30.07,SE,135,0.0,0.0,71,0.00,,,0.02,Weather View 32 v70,2013-10-12 02:30:00,
2013-10-11 22:35:00,72.0,61.6,30.07,SE,135,0.0,0.0,70,0.00,,,0.02,Weather View 32 v70,2013-10-12 02:35:00,
2013-10-11 22:40:00,72.0,62.0,30.07,SE,135,0.0,0.0,71,0.00,,,0.02,Weather View 32 v70,2013-10-12 02:40:00,
2013-10-11 22:45:00,72.0,61.6,30.07,SE,135,0.0,0.0,70,0.00,,,0.02,Weather View 32 v70,2013-10-12 02:45:00,
2013-10-11 22:50:00,72.0,61.6,30.07,SE,135,0.0,0.0,70,0.00,,,0.02,Weather View 32 v70,2013-10-12 02:50:00,
2013-10-11 22:55:00,72.0,61.6,30.07,SE,135,0.0,0.0,70,0.00,,,0.02,Weather View 32 v70,2013-10-12 02:55:00,
2013-10-11 23:00:00,72.0,61.6,30.07,SE,135,0.0,0.0,70,0.00,,,0.02,Weather View 32 v70,2013-10-12 03:00:00,
2013-10-11 23:05:00,72.0,61.6,30.07,SE,135,0.0,0.0,70,0.00,,,0.02,Weather View 32 v70,2013-10-12 03:05:00,
2013-10-11 23:10:00,71.0,60.7,30.07,SE,135,0.0,0.0,70,0.00,,,0.02,Weather View 32 v70,2013-10-12 03:10:00,
2013-10-11 23:15:00,71.0,60.7,30.07,SE,135,0.0,0.0,70,0.00,,,0.02,Weather View 32 v70,2013-10-12 03:15:00,
2013-10-11 23:25:00,71.0,60.7,30.07,SE,135,0.0,0.0,70,0.00,,,0.02,Weather View 32 v70,2013-10-12 03:25:00,
2013-10-11 23:30:00,71.0,60.7,30.07,SE,135,0.0,0.0,70,0.00,,,0.02,Weather View 32 v70,2013-10-12 03:30:00,
2013-10-11 23:35:00,72.0,61.6,30.07,SE,135,0.0,0.0,70,0.00,,,0.02,Weather View 32 v70,2013-10-12 03:35:00,
2013-10-11 23:40:00,70.0,59.7,30.07,SE,135,0.0,0.0,70,0.00,,,0.02,Weather View 32 v70,2013-10-12 03:40:00,
2013-10-11 23:45:00,72.0,61.6,30.07,SE,135,0.0,0.0,70,0.00,,,0.02,Weather View 32 v70,2013-10-12 03:45:00,
2013-10-11 23:55:00,72.0,61.6,30.06,SE,135,0.0,0.0,70,0.00,,,0.02,Weather View 32 v70,2013-10-12 03:55:00,